OPS 4682 DEB, 26732

Orbit data source: Space-Track

OPS 4682 DEB, 26732 is space debris in LEO originally from a launch on Sat, 03 Apr 1965 UTC launched from the Air Force Western Test Range (AFWTR). Debris objects in space refer to the collection of defunct objects orbiting the Earth. Examples of debris include non-operational satellites, rocket bodies, and fragments generated from explosions, collisions, or faulty payload assembly.

Loading next visibility...
Identifier
26732, 1965-027BF
Orbit
LEO
Country
Flag of USUS
Related business
Manufacturer
Unknown
Mission
Spacecraft
Bus & Motor
Unknown
Mass
Unknown
Launch date (UTC)
1965-04-03 (61 years ago)
Launch vehicle
Unknown
Launch site
Air Force Western Test Range (AFWTR)
Object type
Payload
Rocket body
Debris
Shape & HBR
Unknown shape, 0.1 m
Radar Cross Section
Small (<0.1 m²)

Expand to show TLE details & history
Last TLE update: 2 days ago

TLE from 2 days ago
0 OPS 4682 DEB
1 26732U 65027BF  26034.41737044  .00000102  00000-0  32890-3 0  9993
2 26732  90.2529   8.0294 0061478 173.0572 315.3796 12.95886119477847
Epoch: 2026-02-03T10:01Z
TLE epoch observation values (Epoch: 2026-02-03T10:01:00.806Z)
Latitude
52.15211°
Longitude
-95.49872°
Altitude
1,253.379 km
Speed
7.249 km/s
True Right ascension
12h 33m 24s
True Declination
51° 59' 46"
Sunlit
Object was in full shadow at epoch
Visualization orbit readout
Latitude
Unknown
Longitude
Unknown
Altitude
Unknown
Speed
Unknown
Apparent Right ascension
Unknown
Apparent Declination
Unknown
Sunlit
N/A
Visualization observer readout
Local Sidereal Time
15:18:04
Azimuth
Unknown
Elevation
Unknown
Doppler factor
Unknown
Orbital elements
Apogee altitude
1,322.433 km
Perigee altitude
1,228.328 km
Semi-major axis
7,653.518 km
Eccentricity
0.00615
Inclination
90.2529°
RAAN
8.0294°
Arg. of periapsis
173.0572°
True anomaly
314.88205°
Mean anomaly
315.3796°
Eccentric anomaly
315.1311°
Mean motion
3.24154 °/min
Orbital period
111.06 mins
BSTAR
0.0003289
Loading maneuver chart data...
Computing Atmospheric mass density...
Loading historical data...
Loading historical data...
Loading historical data...
Loading historical data...
Loading historical data...
Loading historical data...
Loading historical data...

Documentation

Showing up to 5 results
|